Time,TemperatureF,DewpointF,PressureIn,WindDirection,WindDirectionDegrees,WindSpeedMPH,WindSpeedGustMPH,Humidity,HourlyPrecipIn,Conditions,Clouds,dailyrainin,SoftwareType,DateUTC
2013-04-28 00:00:00,52.2,51.1,29.99,ENE,75,2.0,3.0,96,0.00,,RA,0.00,VWS V14.01,2013-04-28 05:00:00,
2013-04-28 00:05:00,52.2,51.1,29.99,East,91,3.0,4.0,96,0.00,,RA,0.00,VWS V14.01,2013-04-28 05:05:00,
2013-04-28 00:10:00,52.2,51.1,29.99,East,84,1.0,4.0,96,0.00,,CLR,0.00,VWS V14.01,2013-04-28 05:10:00,
2013-04-28 00:11:00,52.2,51.1,29.99,ENE,77,1.0,2.0,96,0.00,,RA,0.00,VWS V14.01,2013-04-28 05:11:00,
2013-04-28 00:16:00,52.2,51.1,29.99,ENE,72,2.0,2.0,96,0.00,,RA,0.00,VWS V14.01,2013-04-28 05:16:00,
2013-04-28 00:20:00,52.2,51.1,29.99,ENE,60,1.0,3.0,96,0.00,,CLR,0.00,VWS V14.01,2013-04-28 05:20:00,
2013-04-28 00:21:00,52.2,51.1,29.99,NNE,27,2.0,3.0,96,0.00,,RA,0.00,VWS V14.01,2013-04-28 05:21:00,
2013-04-28 00:26:00,52.2,51.1,29.99,ENE,64,3.0,3.0,96,0.00,,RA,0.00,VWS V14.01,2013-04-28 05:26:00,
2013-04-28 00:30:00,52.2,51.1,29.99,East,81,2.0,3.0,96,0.00,,CLR,0.00,VWS V14.01,2013-04-28 05:30:00,
2013-04-28 00:31:00,52.2,51.1,29.99,ENE,60,2.0,3.0,96,0.00,,RA,0.00,VWS V14.01,2013-04-28 05:31:00,
2013-04-28 00:36:00,52.2,51.1,29.99,ENE,73,3.0,5.0,96,0.00,,RA,0.00,VWS V14.01,2013-04-28 05:36:00,
2013-04-28 00:40:00,52.2,51.1,29.99,East,79,2.0,5.0,96,0.00,,CLR,0.00,VWS V14.01,2013-04-28 05:40:00,
2013-04-28 00:41:00,52.2,51.1,29.99,East,82,3.0,4.0,96,0.00,,OVC025,0.00,VWS V14.01,2013-04-28 05:41:00,
2013-04-28 00:46:00,52.2,51.1,29.98,ENE,72,2.0,4.0,96,0.00,,OVC025,0.00,VWS V14.01,2013-04-28 05:46:00,
2013-04-28 00:50:00,52.3,51.2,29.98,ENE,68,1.0,4.0,96,0.00,,CLR,0.00,VWS V14.01,2013-04-28 05:50:00,
2013-04-28 00:51:00,52.2,51.1,29.98,East,89,4.0,5.0,96,0.00,,OVC025,0.00,VWS V14.01,2013-04-28 05:51:00,
2013-04-28 00:56:00,52.3,51.5,29.98,East,80,3.0,5.0,97,0.00,,OVC025,0.00,VWS V14.01,2013-04-28 05:56:00,
2013-04-28 01:00:00,52.2,51.4,29.98,East,81,4.0,5.0,97,0.00,,CLR,0.00,VWS V14.01,2013-04-28 06:00:00,
2013-04-28 01:01:00,52.3,51.5,29.98,ENE,78,2.0,5.0,97,0.00,,OVC017,0.00,VWS V14.01,2013-04-28 06:01:00,
2013-04-28 01:06:00,52.4,51.6,29.97,East,98,3.0,5.0,97,0.00,,OVC017,0.00,VWS V14.01,2013-04-28 06:06:00,
2013-04-28 01:10:00,52.3,51.5,29.97,East,94,1.0,5.0,97,0.00,,CLR,0.00,VWS V14.01,2013-04-28 06:10:00,
2013-04-28 01:11:00,52.4,51.6,29.97,ENE,73,1.0,5.0,97,0.00,,OVC017,0.00,VWS V14.01,2013-04-28 06:11:00,
2013-04-28 01:16:00,52.3,51.5,29.97,ENE,58,3.0,5.0,97,0.00,,OVC017,0.00,VWS V14.01,2013-04-28 06:16:00,
2013-04-28 01:20:00,52.4,51.6,29.97,East,79,2.0,5.0,97,0.00,,CLR,0.00,VWS V14.01,2013-04-28 06:20:00,
2013-04-28 01:21:00,52.4,51.6,29.96,ENE,72,4.0,5.0,97,0.00,,OVC031,0.00,VWS V14.01,2013-04-28 06:21:00,
2013-04-28 01:27:00,52.4,51.6,29.96,ENE,77,2.0,5.0,97,0.00,,OVC031,0.00,VWS V14.01,2013-04-28 06:27:00,
2013-04-28 01:30:00,52.5,51.7,29.96,East,80,3.0,5.0,97,0.00,,CLR,0.00,VWS V14.01,2013-04-28 06:30:00,
2013-04-28 01:32:00,52.5,51.7,29.96,East,83,1.0,5.0,97,0.00,,OVC031,0.00,VWS V14.01,2013-04-28 06:32:00,
2013-04-28 01:37:00,52.5,51.7,29.96,ENE,74,6.0,6.0,97,0.00,,OVC031,0.00,VWS V14.01,2013-04-28 06:37:00,
2013-04-28 01:40:00,52.5,51.7,29.95,East,96,2.0,6.0,97,0.00,,CLR,0.00,VWS V14.01,2013-04-28 06:40:00,
2013-04-28 01:42:00,52.5,51.7,29.95,ENE,77,4.0,6.0,97,0.00,,OVC031,0.00,VWS V14.01,2013-04-28 06:42:00,
2013-04-28 01:47:00,52.5,51.7,29.95,East,79,2.0,8.0,97,0.01,,OVC031,0.01,VWS V14.01,2013-04-28 06:47:00,
2013-04-28 01:50:00,52.5,51.7,29.95,ENE,60,2.0,8.0,97,0.01,,CLR,0.01,VWS V14.01,2013-04-28 06:50:00,
2013-04-28 01:52:00,52.5,51.7,29.95,East,80,2.0,7.0,97,0.01,,OVC031,0.01,VWS V14.01,2013-04-28 06:52:00,
2013-04-28 01:57:00,52.5,51.7,29.95,ENE,77,3.0,7.0,97,0.01,,OVC031,0.01,VWS V14.01,2013-04-28 06:57:00,
2013-04-28 02:00:00,52.5,51.7,29.95,ENE,62,2.0,7.0,97,0.01,,CLR,0.01,VWS V14.01,2013-04-28 07:00:00,
2013-04-28 02:02:00,52.5,51.7,29.95,ENE,77,4.0,6.0,97,0.01,,OVC050,0.01,VWS V14.01,2013-04-28 07:02:00,
2013-04-28 02:07:00,52.5,51.7,29.94,ESE,103,3.0,6.0,97,0.01,,OVC050,0.01,VWS V14.01,2013-04-28 07:07:00,
2013-04-28 02:10:00,52.5,51.7,29.94,East,88,4.0,6.0,97,0.01,,CLR,0.01,VWS V14.01,2013-04-28 07:10:00,
2013-04-28 02:12:00,52.6,51.8,29.94,East,79,5.0,5.0,97,0.01,,OVC050,0.01,VWS V14.01,2013-04-28 07:12:00,
2013-04-28 02:17:00,52.6,51.8,29.94,NE,47,2.0,7.0,97,0.01,,OVC050,0.01,VWS V14.01,2013-04-28 07:17:00,
2013-04-28 02:20:00,52.6,51.8,29.94,ENE,57,3.0,7.0,97,0.01,,CLR,0.01,VWS V14.01,2013-04-28 07:20:00,
2013-04-28 02:22:00,52.5,51.7,29.94,NE,51,1.0,4.0,97,0.01,,OVC050,0.01,VWS V14.01,2013-04-28 07:22:00,
2013-04-28 02:27:00,52.5,51.7,29.94,ENE,75,1.0,4.0,97,0.01,,OVC050,0.01,VWS V14.01,2013-04-28 07:27:00,
2013-04-28 02:30:00,52.5,51.7,29.94,NE,51,2.0,4.0,97,0.01,,CLR,0.01,VWS V14.01,2013-04-28 07:30:00,
2013-04-28 02:32:00,52.5,51.7,29.94,NNE,30,1.0,2.0,97,0.01,,OVC050,0.01,VWS V14.01,2013-04-28 07:32:00,
2013-04-28 02:37:00,52.5,51.7,29.94,NE,49,0.0,2.0,97,0.01,,OVC050,0.01,VWS V14.01,2013-04-28 07:37:00,
2013-04-28 02:40:00,52.5,51.7,29.94,NE,49,1.0,2.0,97,0.01,,CLR,0.01,VWS V14.01,2013-04-28 07:40:00,
2013-04-28 02:43:00,52.5,51.7,29.94,NE,49,1.0,2.0,97,0.01,,,0.01,VWS V14.01,2013-04-28 07:43:00,
2013-04-28 02:48:00,52.4,51.6,29.94,NNE,25,1.0,3.0,97,0.01,,,0.01,VWS V14.01,2013-04-28 07:48:00,
2013-04-28 02:50:00,52.4,51.6,29.94,NNE,25,1.0,3.0,97,0.01,,CLR,0.01,VWS V14.01,2013-04-28 07:50:00,
2013-04-28 02:53:00,52.4,51.6,29.94,NE,44,1.0,2.0,97,0.00,,,0.01,VWS V14.01,2013-04-28 07:53:00,
2013-04-28 02:58:00,52.4,51.6,29.93,NE,39,0.0,3.0,97,0.00,,,0.01,VWS V14.01,2013-04-28 07:58:00,
2013-04-28 03:00:00,52.4,51.6,29.93,NE,40,0.0,3.0,97,0.00,,CLR,0.01,VWS V14.01,2013-04-28 08:00:00,
2013-04-28 03:03:00,52.3,51.5,29.93,NE,47,2.0,2.0,97,0.00,,,0.01,VWS V14.01,2013-04-28 08:03:00,
2013-04-28 03:08:00,52.2,51.4,29.93,North,355,2.0,3.0,97,0.00,,,0.01,VWS V14.01,2013-04-28 08:08:00,
2013-04-28 03:10:00,52.2,51.4,29.93,North,357,1.0,3.0,97,0.00,,CLR,0.01,VWS V14.01,2013-04-28 08:10:00,
2013-04-28 03:13:00,52.2,51.4,29.93,ENE,57,3.0,3.0,97,0.00,,,0.01,VWS V14.01,2013-04-28 08:13:00,
2013-04-28 03:18:00,52.1,51.3,29.93,NE,43,1.0,4.0,97,0.00,,,0.01,VWS V14.01,2013-04-28 08:18:00,
2013-04-28 03:20:00,52.2,51.4,29.93,NE,46,2.0,4.0,97,0.00,,CLR,0.01,VWS V14.01,2013-04-28 08:20:00,
2013-04-28 03:23:00,52.1,51.3,29.93,NE,46,2.0,3.0,97,0.00,,,0.01,VWS V14.01,2013-04-28 08:23:00,
2013-04-28 03:28:00,52.1,51.3,29.93,NE,41,2.0,3.0,97,0.00,,,0.01,VWS V14.01,2013-04-28 08:28:00,
2013-04-28 03:30:00,52.1,51.3,29.93,NE,46,2.0,3.0,97,0.00,,CLR,0.01,VWS V14.01,2013-04-28 08:30:00,
2013-04-28 03:33:00,52.0,51.2,29.93,NE,34,3.0,4.0,97,0.00,,,0.01,VWS V14.01,2013-04-28 08:33:00,
2013-04-28 03:38:00,52.0,51.2,29.92,NE,39,3.0,4.0,97,0.00,,,0.01,VWS V14.01,2013-04-28 08:38:00,
2013-04-28 03:40:00,52.0,51.2,29.92,NE,39,3.0,4.0,97,0.00,,CLR,0.01,VWS V14.01,2013-04-28 08:40:00,
2013-04-28 03:43:00,52.0,51.2,29.92,NE,49,2.0,4.0,97,0.00,,,0.01,VWS V14.01,2013-04-28 08:43:00,
2013-04-28 03:48:00,52.0,51.2,29.92,ENE,64,2.0,2.0,97,0.00,,,0.01,VWS V14.01,2013-04-28 08:48:00,
2013-04-28 03:50:00,52.0,51.2,29.92,NE,51,2.0,4.0,97,0.00,,CLR,0.01,VWS V14.01,2013-04-28 08:50:00,
2013-04-28 03:53:00,52.0,51.2,29.92,NE,49,1.0,4.0,97,0.00,,,0.01,VWS V14.01,2013-04-28 08:53:00,
2013-04-28 03:58:00,52.0,51.2,29.92,ENE,58,3.0,4.0,97,0.00,,,0.01,VWS V14.01,2013-04-28 08:58:00,
2013-04-28 04:00:00,52.0,51.2,29.92,ENE,58,3.0,4.0,97,0.00,,CLR,0.01,VWS V14.01,2013-04-28 09:00:00,
2013-04-28 04:04:00,52.0,51.2,29.92,NNE,20,1.0,4.0,97,0.00,,,0.01,VWS V14.01,2013-04-28 09:04:00,
2013-04-28 04:09:00,52.0,51.2,29.92,NE,44,1.0,2.0,97,0.00,,,0.01,VWS V14.01,2013-04-28 09:09:00,
2013-04-28 04:10:00,52.0,51.2,29.92,NE,44,2.0,4.0,97,0.00,,CLR,0.01,VWS V14.01,2013-04-28 09:10:00,
2013-04-28 04:14:00,52.0,51.2,29.92,ENE,57,4.0,5.0,97,0.00,,,0.01,VWS V14.01,2013-04-28 09:14:00,
2013-04-28 04:19:00,52.0,51.2,29.92,NNE,25,2.0,2.0,97,0.00,,,0.01,VWS V14.01,2013-04-28 09:19:00,
2013-04-28 04:20:00,52.0,51.2,29.92,NE,54,2.0,5.0,97,0.00,,CLR,0.01,VWS V14.01,2013-04-28 09:20:00,
2013-04-28 04:24:00,52.0,51.5,29.92,ENE,57,3.0,5.0,98,0.00,,OVC007,0.01,VWS V14.01,2013-04-28 09:24:00,
2013-04-28 04:29:00,52.0,51.5,29.92,ENE,67,2.0,2.0,98,0.00,,OVC007,0.01,VWS V14.01,2013-04-28 09:29:00,
2013-04-28 04:30:00,52.0,51.5,29.92,NE,49,2.0,5.0,98,0.00,,CLR,0.01,VWS V14.01,2013-04-28 09:30:00,
2013-04-28 04:34:00,51.9,51.4,29.92,ENE,61,0.0,3.0,98,0.00,,OVC007,0.01,VWS V14.01,2013-04-28 09:34:00,
2013-04-28 04:39:00,51.9,51.4,29.92,NNE,25,0.0,1.0,98,0.00,,OVC007,0.01,VWS V14.01,2013-04-28 09:39:00,
2013-04-28 04:40:00,52.0,51.5,29.92,NNE,25,0.0,3.0,98,0.00,,CLR,0.01,VWS V14.01,2013-04-28 09:40:00,
2013-04-28 04:44:00,52.0,51.5,29.92,NE,46,1.0,2.0,98,0.00,,OVC009,0.01,VWS V14.01,2013-04-28 09:44:00,
2013-04-28 04:49:00,51.9,51.4,29.92,NE,49,2.0,2.0,98,0.00,,OVC009,0.01,VWS V14.01,2013-04-28 09:49:00,
2013-04-28 04:50:00,52.0,51.5,29.92,NE,41,0.0,3.0,98,0.00,,CLR,0.01,VWS V14.01,2013-04-28 09:50:00,
2013-04-28 04:54:00,52.0,51.5,29.92,ENE,57,1.0,2.0,98,0.00,,OVC009,0.01,VWS V14.01,2013-04-28 09:54:00,
2013-04-28 04:59:00,52.0,51.5,29.92,NE,45,0.0,0.0,98,0.00,,OVC009,0.01,VWS V14.01,2013-04-28 09:59:00,
2013-04-28 05:00:00,52.0,51.5,29.92,NE,46,0.0,2.0,98,0.00,,CLR,0.01,VWS V14.01,2013-04-28 10:00:00,
2013-04-28 05:04:00,52.0,51.5,29.92,NE,47,0.0,2.0,98,0.00,,,0.01,VWS V14.01,2013-04-28 10:04:00,
2013-04-28 05:09:00,52.0,51.5,29.92,NE,46,0.0,1.0,98,0.00,,,0.01,VWS V14.01,2013-04-28 10:09:00,
2013-04-28 05:10:00,52.0,51.5,29.92,NE,47,1.0,2.0,98,0.00,,CLR,0.01,VWS V14.01,2013-04-28 10:10:00,
2013-04-28 05:15:00,52.0,51.5,29.92,NNE,30,1.0,2.0,98,0.00,,,0.01,VWS V14.01,2013-04-28 10:15:00,
2013-04-28 05:20:00,52.0,51.5,29.92,NNE,30,0.0,1.0,98,0.00,,,0.01,VWS V14.01,2013-04-28 10:20:00,
2013-04-28 05:25:00,52.0,51.5,29.92,North,357,0.0,4.0,98,0.00,,,0.01,VWS V14.01,2013-04-28 10:25:00,
2013-04-28 05:30:00,52.0,51.5,29.92,NNE,13,1.0,3.0,98,0.00,,,0.01,VWS V14.01,2013-04-28 10:30:00,
2013-04-28 05:35:00,52.0,51.5,29.92,NNE,13,1.0,3.0,98,0.00,,,0.01,VWS V14.01,2013-04-28 10:35:00,
2013-04-28 05:40:00,52.0,51.5,29.92,NE,34,0.0,1.0,98,0.00,,,0.01,VWS V14.01,2013-04-28 10:40:00,
2013-04-28 05:45:00,52.1,51.5,29.92,NNE,33,0.0,2.0,98,0.00,,,0.01,VWS V14.01,2013-04-28 10:45:00,
2013-04-28 05:50:00,52.1,51.5,29.92,NNE,27,0.0,0.0,98,0.00,,,0.01,VWS V14.01,2013-04-28 10:50:00,
2013-04-28 05:55:00,52.1,51.5,29.92,NNE,27,0.0,0.0,98,0.00,,,0.01,VWS V14.01,2013-04-28 10:55:00,
2013-04-28 06:00:00,52.0,51.5,29.92,NNE,28,0.0,0.0,98,0.00,,,0.01,VWS V14.01,2013-04-28 11:00:00,
2013-04-28 06:05:00,52.0,51.5,29.92,NNE,29,0.0,1.0,98,0.00,,,0.01,VWS V14.01,2013-04-28 11:05:00,
2013-04-28 06:10:00,52.0,51.5,29.92,NE,53,2.0,2.0,98,0.00,,,0.01,VWS V14.01,2013-04-28 11:10:00,
2013-04-28 06:16:00,52.0,51.5,29.92,NE,53,1.0,2.0,98,0.00,,,0.01,VWS V14.01,2013-04-28 11:16:00,
2013-04-28 06:20:00,52.1,51.5,29.92,NNE,28,0.0,2.0,98,0.00,,CLR,0.01,VWS V14.01,2013-04-28 11:20:00,
2013-04-28 06:21:00,52.0,51.5,29.92,ENE,72,1.0,2.0,98,0.00,,,0.01,VWS V14.01,2013-04-28 11:21:00,
2013-04-28 06:26:00,52.1,51.5,29.92,NE,38,1.0,2.0,98,0.00,,,0.01,VWS V14.01,2013-04-28 11:26:00,
2013-04-28 06:30:00,52.0,51.5,29.92,NE,49,0.0,2.0,98,0.00,,CLR,0.01,VWS V14.01,2013-04-28 11:30:00,
2013-04-28 06:31:00,52.1,51.5,29.92,NE,41,1.0,2.0,98,0.00,,,0.01,VWS V14.01,2013-04-28 11:31:00,
2013-04-28 06:36:00,52.1,51.5,29.92,NE,39,2.0,2.0,98,0.00,,,0.01,VWS V14.01,2013-04-28 11:36:00,
2013-04-28 06:40:00,52.1,51.5,29.92,NE,51,1.0,3.0,98,0.00,,CLR,0.01,VWS V14.01,2013-04-28 11:40:00,
2013-04-28 06:41:00,52.1,51.5,29.92,ENE,62,2.0,2.0,98,0.00,,,0.01,VWS V14.01,2013-04-28 11:41:00,
2013-04-28 06:46:00,52.1,51.5,29.92,ENE,58,1.0,3.0,98,0.00,,,0.01,VWS V14.01,2013-04-28 11:46:00,
2013-04-28 06:50:00,52.2,51.7,29.92,NE,56,0.0,3.0,98,0.00,,CLR,0.01,VWS V14.01,2013-04-28 11:50:00,
2013-04-28 06:51:00,52.2,51.7,29.92,NE,56,0.0,0.0,98,0.00,,,0.01,VWS V14.01,2013-04-28 11:51:00,
2013-04-28 06:56:00,52.2,51.7,29.92,ENE,67,1.0,2.0,98,0.00,,,0.01,VWS V14.01,2013-04-28 11:56:00,
2013-04-28 07:00:00,52.2,51.7,29.92,NE,44,0.0,2.0,98,0.00,,CLR,0.01,VWS V14.01,2013-04-28 12:00:00,
2013-04-28 07:01:00,52.2,51.7,29.92,NE,44,0.0,1.0,98,0.00,,,0.01,VWS V14.01,2013-04-28 12:01:00,
2013-04-28 07:06:00,52.3,51.8,29.92,NE,40,1.0,2.0,98,0.00,,,0.01,VWS V14.01,2013-04-28 12:06:00,
2013-04-28 07:10:00,52.3,51.8,29.92,NE,40,1.0,2.0,98,0.00,,CLR,0.01,VWS V14.01,2013-04-28 12:10:00,
2013-04-28 07:11:00,52.3,51.8,29.92,NE,40,0.0,1.0,98,0.00,,,0.01,VWS V14.01,2013-04-28 12:11:00,
2013-04-28 07:16:00,52.4,51.8,29.92,NW,307,0.0,1.0,98,0.00,,,0.01,VWS V14.01,2013-04-28 12:16:00,
2013-04-28 07:20:00,52.4,51.8,29.92,NNW,336,0.0,1.0,98,0.00,,CLR,0.01,VWS V14.01,2013-04-28 12:20:00,
2013-04-28 07:21:00,52.4,51.8,29.92,NNW,336,0.0,1.0,98,0.00,,,0.01,VWS V14.01,2013-04-28 12:21:00,
2013-04-28 07:27:00,52.5,52.0,29.92,NNW,336,0.0,1.0,98,0.00,,,0.01,VWS V14.01,2013-04-28 12:27:00,
2013-04-28 07:30:00,52.5,52.0,29.92,NE,49,1.0,2.0,98,0.00,,CLR,0.01,VWS V14.01,2013-04-28 12:30:00,
2013-04-28 07:32:00,52.5,52.0,29.92,NE,47,0.0,1.0,98,0.00,,,0.01,VWS V14.01,2013-04-28 12:32:00,
2013-04-28 07:37:00,52.6,52.0,29.92,NE,44,0.0,1.0,98,0.00,,,0.01,VWS V14.01,2013-04-28 12:37:00,
2013-04-28 07:40:00,52.6,52.0,29.92,NE,44,0.0,1.0,98,0.00,,CLR,0.01,VWS V14.01,2013-04-28 12:40:00,
2013-04-28 07:42:00,52.6,52.0,29.92,North,7,0.0,2.0,98,0.00,,,0.01,VWS V14.01,2013-04-28 12:42:00,
2013-04-28 07:47:00,52.7,52.2,29.92,NNE,23,0.0,2.0,98,0.00,,,0.01,VWS V14.01,2013-04-28 12:47:00,
2013-04-28 07:50:00,52.7,52.2,29.92,NNE,23,0.0,2.0,98,0.00,,CLR,0.01,VWS V14.01,2013-04-28 12:50:00,
2013-04-28 07:52:00,52.8,52.2,29.92,NE,47,1.0,2.0,98,0.00,,,0.01,VWS V14.01,2013-04-28 12:52:00,
2013-04-28 07:57:00,52.8,52.2,29.92,NE,36,2.0,2.0,98,0.00,,,0.01,VWS V14.01,2013-04-28 12:57:00,
2013-04-28 08:00:00,52.8,52.2,29.92,NE,44,1.0,2.0,98,0.00,,CLR,0.01,VWS V14.01,2013-04-28 13:00:00,
2013-04-28 08:02:00,52.7,52.2,29.92,NE,49,1.0,3.0,98,0.00,,,0.01,VWS V14.01,2013-04-28 13:02:00,
2013-04-28 08:07:00,52.8,52.2,29.92,NE,40,0.0,3.0,98,0.00,,,0.01,VWS V14.01,2013-04-28 13:07:00,
2013-04-28 08:10:00,52.9,52.3,29.92,NE,39,0.0,3.0,98,0.00,,CLR,0.01,VWS V14.01,2013-04-28 13:10:00,
2013-04-28 08:12:00,52.9,52.3,29.93,North,6,1.0,2.0,98,0.00,,,0.01,VWS V14.01,2013-04-28 13:12:00,
2013-04-28 08:17:00,52.9,52.3,29.93,WNW,295,1.0,3.0,98,0.00,,,0.01,VWS V14.01,2013-04-28 13:17:00,
2013-04-28 08:20:00,52.9,52.3,29.93,NW,326,0.0,3.0,98,0.00,,CLR,0.01,VWS V14.01,2013-04-28 13:20:00,
2013-04-28 08:22:00,52.9,52.3,29.93,NNE,25,2.0,2.0,98,0.00,,,0.01,VWS V14.01,2013-04-28 13:22:00,
2013-04-28 08:27:00,52.8,52.2,29.93,NNE,25,0.0,3.0,98,0.00,,,0.01,VWS V14.01,2013-04-28 13:27:00,
2013-04-28 08:30:00,52.9,52.3,29.93,NNE,25,0.0,3.0,98,0.00,,CLR,0.01,VWS V14.01,2013-04-28 13:30:00,
2013-04-28 08:32:00,52.9,52.3,29.92,NNW,336,0.0,2.0,98,0.00,,,0.01,VWS V14.01,2013-04-28 13:32:00,
2013-04-28 08:37:00,52.9,52.3,29.92,NE,45,2.0,2.0,98,0.00,,,0.01,VWS V14.01,2013-04-28 13:37:00,
2013-04-28 08:40:00,53.0,52.5,29.92,NE,36,1.0,2.0,98,0.00,,CLR,0.01,VWS V14.01,2013-04-28 13:40:00,
2013-04-28 08:42:00,52.9,52.3,29.92,NE,53,0.0,2.0,98,0.00,,,0.01,VWS V14.01,2013-04-28 13:42:00,
2013-04-28 08:48:00,52.9,52.3,29.92,NNW,347,1.0,2.0,98,0.00,,,0.01,VWS V14.01,2013-04-28 13:48:00,
2013-04-28 08:50:00,52.9,52.3,29.92,North,352,1.0,2.0,98,0.00,,CLR,0.01,VWS V14.01,2013-04-28 13:50:00,
2013-04-28 08:53:00,52.9,52.3,29.92,NW,314,1.0,2.0,98,0.00,,,0.01,VWS V14.01,2013-04-28 13:53:00,
2013-04-28 08:58:00,52.9,52.3,29.93,NW,312,0.0,2.0,98,0.00,,,0.01,VWS V14.01,2013-04-28 13:58:00,
2013-04-28 09:00:00,52.9,52.3,29.93,NW,309,1.0,2.0,98,0.00,,CLR,0.01,VWS V14.01,2013-04-28 14:00:00,
2013-04-28 09:03:00,52.9,52.3,29.92,NNE,25,1.0,3.0,98,0.00,,OVC009,0.01,VWS V14.01,2013-04-28 14:03:00,
2013-04-28 09:08:00,52.9,52.3,29.92,North,349,1.0,3.0,98,0.00,,OVC009,0.01,VWS V14.01,2013-04-28 14:08:00,
2013-04-28 09:10:00,52.9,52.3,29.92,NNE,27,2.0,3.0,98,0.00,,CLR,0.01,VWS V14.01,2013-04-28 14:10:00,
2013-04-28 09:13:00,52.9,52.3,29.93,NW,304,1.0,3.0,98,0.00,,OVC009,0.01,VWS V14.01,2013-04-28 14:13:00,
2013-04-28 09:18:00,52.9,52.3,29.93,WNW,302,0.0,3.0,98,0.00,,OVC009,0.01,VWS V14.01,2013-04-28 14:18:00,
2013-04-28 09:20:00,52.9,52.3,29.93,NW,307,1.0,3.0,98,0.00,,CLR,0.01,VWS V14.01,2013-04-28 14:20:00,
2013-04-28 09:23:00,52.9,52.3,29.93,NNW,345,1.0,2.0,98,0.00,,OVC009,0.01,VWS V14.01,2013-04-28 14:23:00,
2013-04-28 09:28:00,52.9,52.3,29.93,North,6,1.0,2.0,98,0.00,,OVC009,0.01,VWS V14.01,2013-04-28 14:28:00,
2013-04-28 09:30:00,52.9,52.3,29.93,North,3,2.0,2.0,98,0.00,,CLR,0.01,VWS V14.01,2013-04-28 14:30:00,
2013-04-28 09:33:00,52.9,52.3,29.93,NW,319,1.0,3.0,98,0.00,,OVC009,0.01,VWS V14.01,2013-04-28 14:33:00,
2013-04-28 09:38:00,53.0,52.5,29.93,North,8,0.0,3.0,98,0.00,,OVC009,0.01,VWS V14.01,2013-04-28 14:38:00,
2013-04-28 09:40:00,53.0,52.5,29.93,North,8,1.0,3.0,98,0.00,,CLR,0.01,VWS V14.01,2013-04-28 14:40:00,
2013-04-28 09:43:00,53.0,52.5,29.93,North,356,0.0,2.0,98,0.00,,OVC011,0.01,VWS V14.01,2013-04-28 14:43:00,
2013-04-28 09:48:00,53.1,52.5,29.93,WNW,294,3.0,3.0,98,0.00,,OVC011,0.01,VWS V14.01,2013-04-28 14:48:00,
2013-04-28 09:50:00,53.1,52.5,29.93,WNW,294,3.0,3.0,98,0.00,,CLR,0.01,VWS V14.01,2013-04-28 14:50:00,
2013-04-28 09:54:00,53.1,52.5,29.93,North,11,1.0,3.0,98,0.00,,OVC011,0.01,VWS V14.01,2013-04-28 14:54:00,
2013-04-28 09:59:00,53.1,52.5,29.93,NW,318,1.0,1.0,98,0.00,,OVC011,0.01,VWS V14.01,2013-04-28 14:59:00,
2013-04-28 10:00:00,53.1,52.5,29.94,NW,319,1.0,3.0,98,0.00,,CLR,0.01,VWS V14.01,2013-04-28 15:00:00,
2013-04-28 10:04:00,53.1,52.5,29.93,NNE,15,1.0,2.0,98,0.00,,OVC011,0.01,VWS V14.01,2013-04-28 15:04:00,
2013-04-28 10:09:00,53.1,52.5,29.93,NW,315,0.0,0.0,98,0.00,,OVC011,0.01,VWS V14.01,2013-04-28 15:09:00,
2013-04-28 10:10:00,53.1,52.5,29.93,NW,315,0.0,2.0,98,0.00,,CLR,0.01,VWS V14.01,2013-04-28 15:10:00,
2013-04-28 10:14:00,53.1,52.5,29.93,WNW,302,1.0,2.0,98,0.00,,OVC013,0.01,VWS V14.01,2013-04-28 15:14:00,
2013-04-28 10:19:00,53.0,52.5,29.93,North,1,1.0,2.0,98,0.00,,OVC013,0.01,VWS V14.01,2013-04-28 15:19:00,
2013-04-28 10:20:00,53.0,52.5,29.93,North,4,2.0,3.0,98,0.00,,CLR,0.01,VWS V14.01,2013-04-28 15:20:00,
2013-04-28 10:24:00,53.0,52.5,29.94,NW,305,1.0,2.0,98,0.00,,OVC015,0.01,VWS V14.01,2013-04-28 15:24:00,
2013-04-28 10:29:00,53.0,52.5,29.94,WNW,302,0.0,1.0,98,0.00,,OVC015,0.01,VWS V14.01,2013-04-28 15:29:00,
2013-04-28 10:30:00,53.0,52.5,29.93,WNW,302,0.0,2.0,98,0.00,,CLR,0.01,VWS V14.01,2013-04-28 15:30:00,
2013-04-28 10:34:00,53.0,52.5,29.94,WNW,300,2.0,2.0,98,0.00,,OVC015,0.01,VWS V14.01,2013-04-28 15:34:00,
2013-04-28 10:39:00,53.1,52.5,29.94,NW,321,2.0,2.0,98,0.00,,OVC015,0.01,VWS V14.01,2013-04-28 15:39:00,
2013-04-28 10:40:00,53.1,52.5,29.94,NW,309,0.0,2.0,98,0.00,,CLR,0.01,VWS V14.01,2013-04-28 15:40:00,
2013-04-28 10:44:00,53.1,52.5,29.94,NW,312,1.0,3.0,98,0.00,,OVC017,0.01,VWS V14.01,2013-04-28 15:44:00,
2013-04-28 10:49:00,53.1,52.5,29.94,NW,312,1.0,1.0,98,0.00,,OVC017,0.01,VWS V14.01,2013-04-28 15:49:00,
2013-04-28 10:50:00,53.1,52.5,29.94,NW,312,1.0,3.0,98,0.00,,CLR,0.01,VWS V14.01,2013-04-28 15:50:00,
2013-04-28 10:54:00,53.1,52.5,29.94,North,358,1.0,3.0,98,0.00,,OVC017,0.01,VWS V14.01,2013-04-28 15:54:00,
2013-04-28 10:59:00,53.0,52.5,29.94,North,360,2.0,3.0,98,0.00,,OVC017,0.01,VWS V14.01,2013-04-28 15:59:00,
2013-04-28 11:00:00,53.1,52.5,29.94,WNW,300,4.0,4.0,98,0.00,,CLR,0.01,VWS V14.01,2013-04-28 16:00:00,
2013-04-28 11:05:00,53.2,52.7,29.94,NW,307,2.0,3.0,98,0.00,,OVC019,0.01,VWS V14.01,2013-04-28 16:05:00,
2013-04-28 11:10:00,53.4,52.8,29.93,East,83,0.0,0.0,98,0.00,,OVC019,0.01,VWS V14.01,2013-04-28 16:10:00,
2013-04-28 11:15:00,53.8,53.2,29.93,NE,45,0.0,5.0,98,0.00,,OVC019,0.01,VWS V14.01,2013-04-28 16:15:00,
2013-04-28 11:20:00,53.9,53.3,29.92,NE,44,2.0,5.0,98,0.00,,OVC025,0.01,VWS V14.01,2013-04-28 16:20:00,
2013-04-28 11:25:00,54.8,54.2,29.93,NNE,32,3.0,5.0,98,0.00,,OVC025,0.01,VWS V14.01,2013-04-28 16:25:00,
2013-04-28 11:30:00,55.2,54.7,29.93,ENE,71,1.0,2.0,98,0.00,,OVC025,0.01,VWS V14.01,2013-04-28 16:30:00,
2013-04-28 11:35:00,55.7,54.9,29.93,WNW,298,1.0,4.0,97,0.00,,OVC025,0.01,VWS V14.01,2013-04-28 16:35:00,
2013-04-28 11:40:00,56.1,54.4,29.92,NE,53,3.0,6.0,94,0.00,,OVC070,0.01,VWS V14.01,2013-04-28 16:40:00,
2013-04-28 11:45:00,56.8,54.8,29.92,NNW,347,1.0,6.0,93,0.00,,OVC070,0.01,VWS V14.01,2013-04-28 16:45:00,
2013-04-28 11:50:00,57.5,54.3,29.92,NW,312,1.0,6.0,89,0.00,,OVC070,0.01,VWS V14.01,2013-04-28 16:50:00,
2013-04-28 11:55:00,58.4,54.9,29.92,ENE,63,5.0,6.0,88,0.00,,OVC070,0.01,VWS V14.01,2013-04-28 16:55:00,
2013-04-28 12:00:00,58.8,54.3,29.92,NNE,30,2.0,4.0,85,0.00,,BKN070,0.01,VWS V14.01,2013-04-28 17:00:00,
2013-04-28 12:05:00,59.1,54.6,29.92,North,349,3.0,4.0,85,0.00,,BKN070,0.01,VWS V14.01,2013-04-28 17:05:00,
2013-04-28 12:10:00,59.3,53.8,29.91,ENE,58,4.0,5.0,82,0.00,,BKN070,0.01,VWS V14.01,2013-04-28 17:10:00,
2013-04-28 12:15:00,60.2,55.0,29.92,NW,326,3.0,7.0,83,0.00,,BKN070,0.01,VWS V14.01,2013-04-28 17:15:00,
2013-04-28 12:20:00,60.5,54.7,29.92,North,4,2.0,7.0,81,0.00,,CLR,0.01,VWS V14.01,2013-04-28 17:20:00,
2013-04-28 12:21:00,60.6,54.4,29.92,NNE,12,1.0,4.0,80,0.00,,OVC070,0.01,VWS V14.01,2013-04-28 17:21:00,
2013-04-28 12:26:00,60.9,54.7,29.92,NE,45,3.0,6.0,80,0.00,,OVC070,0.01,VWS V14.01,2013-04-28 17:26:00,
2013-04-28 12:30:00,60.6,54.1,29.92,ENE,65,3.0,7.0,79,0.00,,CLR,0.01,VWS V14.01,2013-04-28 17:30:00,
2013-04-28 12:31:00,60.4,53.5,29.92,NW,306,1.0,6.0,78,0.00,,OVC070,0.01,VWS V14.01,2013-04-28 17:31:00,
2013-04-28 12:36:00,60.4,53.5,29.92,ENE,72,2.0,6.0,78,0.00,,OVC070,0.01,VWS V14.01,2013-04-28 17:36:00,
2013-04-28 12:40:00,60.4,53.9,29.91,WNW,295,0.0,6.0,79,0.00,,CLR,0.01,VWS V14.01,2013-04-28 17:40:00,
2013-04-28 12:41:00,60.5,54.0,29.91,ENE,60,3.0,5.0,79,0.00,,BKN070,0.01,VWS V14.01,2013-04-28 17:41:00,
2013-04-28 12:46:00,60.4,53.9,29.91,ENE,77,3.0,6.0,79,0.00,,BKN070,0.01,VWS V14.01,2013-04-28 17:46:00,
2013-04-28 12:50:00,60.4,53.9,29.91,East,82,3.0,6.0,79,0.00,,CLR,0.01,VWS V14.01,2013-04-28 17:50:00,
2013-04-28 12:51:00,60.9,55.0,29.91,ENE,72,3.0,7.0,81,0.00,,BKN070,0.01,VWS V14.01,2013-04-28 17:51:00,
2013-04-28 12:56:00,61.7,54.4,29.91,NNE,29,1.0,7.0,77,0.00,,BKN070,0.01,VWS V14.01,2013-04-28 17:56:00,
2013-04-28 13:00:00,61.6,53.2,29.91,NE,51,1.0,7.0,74,0.00,,CLR,0.01,VWS V14.01,2013-04-28 18:00:00,
2013-04-28 13:01:00,61.5,53.9,29.91,WNW,300,1.0,2.0,76,0.00,,BKN070,0.01,VWS V14.01,2013-04-28 18:01:00,
2013-04-28 13:06:00,62.1,53.7,29.91,NE,44,1.0,5.0,74,0.00,,BKN070,0.01,VWS V14.01,2013-04-28 18:06:00,
2013-04-28 13:10:00,62.0,53.3,29.91,ENE,58,4.0,6.0,73,0.00,,CLR,0.01,VWS V14.01,2013-04-28 18:10:00,
2013-04-28 13:11:00,61.6,53.6,29.91,ENE,72,4.0,5.0,75,0.00,,BKN070,0.01,VWS V14.01,2013-04-28 18:11:00,
2013-04-28 13:16:00,61.6,53.2,29.91,ENE,60,4.0,9.0,74,0.00,,BKN070,0.01,VWS V14.01,2013-04-28 18:16:00,
2013-04-28 13:20:00,61.4,53.4,29.91,NE,51,3.0,9.0,75,0.00,,CLR,0.01,VWS V14.01,2013-04-28 18:20:00,
2013-04-28 13:21:00,61.7,54.4,29.90,ENE,72,7.0,8.0,77,0.00,,SCT070,0.01,VWS V14.01,2013-04-28 18:21:00,
2013-04-28 13:26:00,62.3,53.9,29.91,NNW,338,1.0,8.0,74,0.00,,SCT070,0.01,VWS V14.01,2013-04-28 18:26:00,
2013-04-28 13:30:00,62.4,53.6,29.90,NNE,25,0.0,8.0,73,0.00,,CLR,0.01,VWS V14.01,2013-04-28 18:30:00,
2013-04-28 13:31:00,62.5,53.7,29.90,WNW,289,1.0,4.0,73,0.00,,SCT070,0.01,VWS V14.01,2013-04-28 18:31:00,
2013-04-28 13:36:00,63.0,53.5,29.91,NNE,25,4.0,5.0,71,0.00,,SCT070,0.01,VWS V14.01,2013-04-28 18:36:00,
2013-04-28 13:40:00,63.0,53.5,29.91,NNE,20,1.0,5.0,71,0.00,,CLR,0.01,VWS V14.01,2013-04-28 18:40:00,
2013-04-28 13:42:00,63.4,54.6,29.91,NE,56,3.0,3.0,73,0.00,,BKN070,0.01,VWS V14.01,2013-04-28 18:42:00,
2013-04-28 13:47:00,63.3,53.8,29.90,NE,39,1.0,5.0,71,0.00,,BKN070,0.01,VWS V14.01,2013-04-28 18:47:00,
2013-04-28 13:50:00,63.3,53.8,29.90,NNE,29,0.0,5.0,71,0.00,,CLR,0.01,VWS V14.01,2013-04-28 18:50:00,
2013-04-28 13:52:00,63.3,53.8,29.90,East,80,3.0,5.0,71,0.00,,BKN070,0.01,VWS V14.01,2013-04-28 18:52:00,
2013-04-28 13:57:00,63.2,53.7,29.91,ENE,65,2.0,5.0,71,0.00,,BKN070,0.01,VWS V14.01,2013-04-28 18:57:00,
2013-04-28 14:00:00,63.2,53.7,29.91,East,99,1.0,5.0,71,0.00,,CLR,0.01,VWS V14.01,2013-04-28 19:00:00,
2013-04-28 14:02:00,63.4,53.8,29.91,ENE,76,6.0,6.0,71,0.00,,SCT070,0.01,VWS V14.01,2013-04-28 19:02:00,
2013-04-28 14:07:00,63.5,53.9,29.91,NW,315,1.0,7.0,71,0.00,,SCT070,0.01,VWS V14.01,2013-04-28 19:07:00,
2013-04-28 14:10:00,63.5,53.5,29.91,NNE,25,1.0,7.0,70,0.00,,CLR,0.01,VWS V14.01,2013-04-28 19:10:00,
2013-04-28 14:12:00,63.9,53.9,29.91,West,281,1.0,4.0,70,0.00,,SCT070,0.01,VWS V14.01,2013-04-28 19:12:00,
2013-04-28 14:17:00,63.8,53.5,29.91,NW,319,2.0,4.0,69,0.00,,SCT070,0.01,VWS V14.01,2013-04-28 19:17:00,
2013-04-28 14:20:00,63.8,53.5,29.91,WNW,283,3.0,4.0,69,0.00,,CLR,0.01,VWS V14.01,2013-04-28 19:20:00,
2013-04-28 14:22:00,63.7,53.7,29.90,NW,306,1.0,4.0,70,0.00,,SCT070,0.01,VWS V14.01,2013-04-28 19:22:00,
2013-04-28 14:27:00,64.0,54.4,29.90,West,281,1.0,4.0,71,0.00,,SCT070,0.01,VWS V14.01,2013-04-28 19:27:00,
2013-04-28 14:30:00,64.1,53.7,29.90,WNW,288,2.0,4.0,69,0.00,,CLR,0.01,VWS V14.01,2013-04-28 19:30:00,
2013-04-28 14:32:00,64.2,53.8,29.90,NW,315,2.0,4.0,69,0.00,,SCT070,0.01,VWS V14.01,2013-04-28 19:32:00,
2013-04-28 14:37:00,64.4,53.6,29.90,WNW,300,3.0,4.0,68,0.00,,SCT070,0.01,VWS V14.01,2013-04-28 19:37:00,
2013-04-28 14:40:00,64.4,53.6,29.90,NW,326,2.0,4.0,68,0.00,,CLR,0.01,VWS V14.01,2013-04-28 19:40:00,
2013-04-28 14:42:00,64.7,53.9,29.89,West,269,3.0,4.0,68,0.00,,SCT042,0.01,VWS V14.01,2013-04-28 19:42:00,
2013-04-28 14:47:00,64.9,53.7,29.89,WNW,285,2.0,5.0,67,0.00,,SCT042,0.01,VWS V14.01,2013-04-28 19:47:00,
2013-04-28 14:50:00,65.0,53.8,29.89,WNW,290,3.0,5.0,67,0.00,,CLR,0.01,VWS V14.01,2013-04-28 19:50:00,
2013-04-28 14:52:00,64.9,53.7,29.89,East,79,1.0,3.0,67,0.00,,SCT042,0.01,VWS V14.01,2013-04-28 19:52:00,
2013-04-28 14:58:00,65.1,54.3,29.89,NW,316,1.0,4.0,68,0.00,,SCT042,0.01,VWS V14.01,2013-04-28 19:58:00,
2013-04-28 15:00:00,65.2,54.4,29.89,NW,319,0.0,4.0,68,0.00,,CLR,0.01,VWS V14.01,2013-04-28 20:00:00,
2013-04-28 15:03:00,65.3,54.1,29.88,WNW,291,1.0,3.0,67,0.00,,BKN040,0.01,VWS V14.01,2013-04-28 20:03:00,
2013-04-28 15:08:00,65.4,53.3,29.89,West,277,1.0,4.0,65,0.00,,BKN040,0.01,VWS V14.01,2013-04-28 20:08:00,
2013-04-28 15:10:00,65.4,54.2,29.89,WNW,285,1.0,4.0,67,0.00,,CLR,0.01,VWS V14.01,2013-04-28 20:10:00,
2013-04-28 15:13:00,65.6,53.5,29.88,NW,314,3.0,4.0,65,0.00,,BKN040,0.01,VWS V14.01,2013-04-28 20:13:00,
2013-04-28 15:18:00,65.6,54.0,29.88,NW,304,2.0,5.0,66,0.00,,BKN040,0.01,VWS V14.01,2013-04-28 20:18:00,
2013-04-28 15:20:00,65.6,54.0,29.88,NW,322,1.0,5.0,66,0.00,,CLR,0.01,VWS V14.01,2013-04-28 20:20:00,
2013-04-28 15:23:00,66.1,54.0,29.88,NW,321,1.0,4.0,65,0.00,,OVC042,0.01,VWS V14.01,2013-04-28 20:23:00,
2013-04-28 15:28:00,66.5,54.0,29.88,NW,322,2.0,4.0,64,0.00,,OVC042,0.01,VWS V14.01,2013-04-28 20:28:00,
2013-04-28 15:30:00,66.6,54.1,29.88,NW,321,2.0,4.0,64,0.00,,CLR,0.01,VWS V14.01,2013-04-28 20:30:00,
2013-04-28 15:33:00,67.0,53.1,29.88,NW,324,5.0,6.0,61,0.00,,OVC042,0.01,VWS V14.01,2013-04-28 20:33:00,
2013-04-28 15:38:00,66.7,54.2,29.87,NW,316,1.0,6.0,64,0.00,,OVC042,0.01,VWS V14.01,2013-04-28 20:38:00,
2013-04-28 15:40:00,66.7,54.2,29.87,NW,316,4.0,6.0,64,0.00,,CLR,0.01,VWS V14.01,2013-04-28 20:40:00,
2013-04-28 15:43:00,67.2,53.8,29.87,NW,308,2.0,5.0,62,0.00,,OVC042,0.01,VWS V14.01,2013-04-28 20:43:00,
2013-04-28 15:48:00,67.0,53.1,29.87,SW,228,4.0,5.0,61,0.00,,OVC042,0.01,VWS V14.01,2013-04-28 20:48:00,
2013-04-28 15:50:00,67.0,53.1,29.87,SW,221,4.0,5.0,61,0.00,,CLR,0.01,VWS V14.01,2013-04-28 20:50:00,
2013-04-28 15:53:00,66.6,53.2,29.86,West,277,5.0,5.0,62,0.00,,OVC042,0.01,VWS V14.01,2013-04-28 20:53:00,
2013-04-28 15:58:00,66.8,53.8,29.86,NW,307,3.0,5.0,63,0.00,,OVC042,0.01,VWS V14.01,2013-04-28 20:58:00,
2013-04-28 16:00:00,66.8,53.8,29.86,NW,307,3.0,5.0,63,0.00,,CLR,0.01,VWS V14.01,2013-04-28 21:00:00,
2013-04-28 16:03:00,67.1,53.2,29.86,NNW,338,5.0,6.0,61,0.00,,OVC044,0.01,VWS V14.01,2013-04-28 21:03:00,
2013-04-28 16:09:00,66.9,52.6,29.86,NNE,23,4.0,4.0,60,0.00,,OVC044,0.01,VWS V14.01,2013-04-28 21:09:00,
2013-04-28 16:10:00,66.9,52.6,29.86,North,6,2.0,6.0,60,0.00,,CLR,0.01,VWS V14.01,2013-04-28 21:10:00,
2013-04-28 16:14:00,67.0,53.1,29.86,NNW,330,2.0,4.0,61,0.00,,OVC044,0.01,VWS V14.01,2013-04-28 21:14:00,
2013-04-28 16:19:00,67.6,53.7,29.86,SW,214,5.0,5.0,61,0.00,,OVC044,0.01,VWS V14.01,2013-04-28 21:19:00,
2013-04-28 16:20:00,67.6,53.7,29.86,SW,222,3.0,6.0,61,0.00,,CLR,0.01,VWS V14.01,2013-04-28 21:20:00,
2013-04-28 16:24:00,67.4,53.0,29.86,WNW,302,4.0,5.0,60,0.00,,BKN044,0.01,VWS V14.01,2013-04-28 21:24:00,
2013-04-28 16:29:00,67.2,53.3,29.85,NW,311,1.0,2.0,61,0.00,,BKN044,0.01,VWS V14.01,2013-04-28 21:29:00,
2013-04-28 16:30:00,67.2,53.3,29.85,NW,309,1.0,5.0,61,0.00,,CLR,0.01,VWS V14.01,2013-04-28 21:30:00,
2013-04-28 16:34:00,67.5,53.1,29.85,WNW,291,2.0,4.0,60,0.00,,BKN044,0.01,VWS V14.01,2013-04-28 21:34:00,
2013-04-28 16:39:00,67.4,53.0,29.86,WSW,253,1.0,2.0,60,0.00,,BKN044,0.01,VWS V14.01,2013-04-28 21:39:00,
2013-04-28 16:40:00,67.4,52.6,29.86,SSW,207,0.0,6.0,59,0.00,,CLR,0.01,VWS V14.01,2013-04-28 21:40:00,
2013-04-28 16:44:00,67.6,53.7,29.86,SSW,212,1.0,4.0,61,0.00,,OVC044,0.01,VWS V14.01,2013-04-28 21:44:00,
2013-04-28 16:49:00,67.7,53.3,29.86,NW,311,0.0,1.0,60,0.00,,OVC044,0.01,VWS V14.01,2013-04-28 21:49:00,
2013-04-28 16:50:00,67.7,52.9,29.86,NW,312,1.0,4.0,59,0.00,,CLR,0.01,VWS V14.01,2013-04-28 21:50:00,
2013-04-28 16:54:00,67.8,53.4,29.86,WSW,252,3.0,3.0,60,0.00,,OVC044,0.01,VWS V14.01,2013-04-28 21:54:00,
2013-04-28 16:59:00,67.7,53.3,29.86,NNW,330,1.0,3.0,60,0.00,,OVC044,0.01,VWS V14.01,2013-04-28 21:59:00,
2013-04-28 17:00:00,67.9,53.1,29.86,WSW,253,2.0,5.0,59,0.00,,CLR,0.01,VWS V14.01,2013-04-28 22:00:00,
2013-04-28 17:05:00,67.6,52.3,29.86,WSW,256,1.0,3.0,58,0.00,,BKN046,0.01,VWS V14.01,2013-04-28 22:05:00,
2013-04-28 17:10:00,67.5,52.7,29.86,WNW,290,0.0,1.0,59,0.00,,BKN046,0.01,VWS V14.01,2013-04-28 22:10:00,
2013-04-28 17:15:00,67.5,52.7,29.86,NNW,339,2.0,6.0,59,0.00,,BKN046,0.01,VWS V14.01,2013-04-28 22:15:00,
2013-04-28 17:20:00,67.6,53.2,29.86,NNW,329,3.0,4.0,60,0.00,,BKN048,0.01,VWS V14.01,2013-04-28 22:20:00,
2013-04-28 17:25:00,67.8,53.0,29.86,NNW,336,1.0,4.0,59,0.00,,BKN048,0.01,VWS V14.01,2013-04-28 22:25:00,
2013-04-28 17:30:00,68.0,53.2,29.86,West,276,1.0,3.0,59,0.00,,BKN048,0.01,VWS V14.01,2013-04-28 22:30:00,
2013-04-28 17:35:00,68.2,52.9,29.86,NW,324,0.0,3.0,58,0.00,,BKN048,0.01,VWS V14.01,2013-04-28 22:35:00,
2013-04-28 17:40:00,68.5,53.2,29.86,WSW,250,1.0,4.0,58,0.00,,OVC048,0.01,VWS V14.01,2013-04-28 22:40:00,
2013-04-28 17:45:00,67.8,53.4,29.86,West,267,1.0,4.0,60,0.00,,OVC048,0.01,VWS V14.01,2013-04-28 22:45:00,
2013-04-28 17:50:00,67.7,53.3,29.86,WSW,257,3.0,4.0,60,0.00,,OVC048,0.01,VWS V14.01,2013-04-28 22:50:00,
2013-04-28 17:55:00,67.6,52.8,29.86,WSW,258,1.0,5.0,59,0.00,,OVC048,0.01,VWS V14.01,2013-04-28 22:55:00,
2013-04-28 18:00:00,67.5,53.1,29.86,SW,233,1.0,4.0,60,0.00,,SCT050,0.01,VWS V14.01,2013-04-28 23:00:00,
2013-04-28 18:05:00,67.6,53.2,29.86,SW,219,1.0,4.0,60,0.00,,SCT050,0.01,VWS V14.01,2013-04-28 23:05:00,
2013-04-28 18:10:00,67.5,53.1,29.86,West,271,1.0,3.0,60,0.00,,SCT050,0.01,VWS V14.01,2013-04-28 23:10:00,
2013-04-28 18:16:00,67.0,53.1,29.86,WSW,245,0.0,3.0,61,0.00,,SCT050,0.01,VWS V14.01,2013-04-28 23:16:00,
2013-04-28 18:20:00,66.9,53.0,29.86,WSW,253,1.0,3.0,61,0.00,,CLR,0.01,VWS V14.01,2013-04-28 23:20:00,
2013-04-28 18:21:00,66.8,52.9,29.86,WSW,251,0.0,2.0,61,0.00,,SCT050,0.01,VWS V14.01,2013-04-28 23:21:00,
2013-04-28 18:26:00,66.8,53.4,29.86,WSW,245,0.0,2.0,62,0.00,,SCT050,0.01,VWS V14.01,2013-04-28 23:26:00,
2013-04-28 18:30:00,66.9,53.5,29.85,South,177,1.0,2.0,62,0.00,,CLR,0.01,VWS V14.01,2013-04-28 23:30:00,
2013-04-28 18:31:00,67.0,53.1,29.85,South,181,1.0,1.0,61,0.00,,SCT050,0.01,VWS V14.01,2013-04-28 23:31:00,
2013-04-28 18:36:00,66.9,53.0,29.85,SSE,165,0.0,4.0,61,0.00,,SCT050,0.01,VWS V14.01,2013-04-28 23:36:00,
2013-04-28 18:40:00,66.8,53.4,29.85,SSE,160,2.0,4.0,62,0.00,,CLR,0.01,VWS V14.01,2013-04-28 23:40:00,
2013-04-28 18:41:00,66.7,53.3,29.85,WSW,242,0.0,2.0,62,0.00,,CLR,0.01,VWS V14.01,2013-04-28 23:41:00,
2013-04-28 18:46:00,66.6,52.8,29.85,WSW,252,1.0,3.0,61,0.00,,CLR,0.01,VWS V14.01,2013-04-28 23:46:00,
2013-04-28 18:50:00,66.5,53.1,29.85,South,191,1.0,3.0,62,0.00,,CLR,0.01,VWS V14.01,2013-04-28 23:50:00,
2013-04-28 18:51:00,66.5,53.1,29.85,SSW,205,0.0,2.0,62,0.00,,CLR,0.01,VWS V14.01,2013-04-28 23:51:00,
2013-04-28 18:56:00,66.3,52.9,29.85,West,260,1.0,2.0,62,0.00,,CLR,0.01,VWS V14.01,2013-04-28 23:56:00,
2013-04-28 19:00:00,66.3,53.3,29.85,WSW,245,2.0,2.0,63,0.00,,CLR,0.01,VWS V14.01,2013-04-29 00:00:00,
2013-04-28 19:01:00,66.2,53.2,29.85,WSW,250,1.0,2.0,63,0.00,,SCT055,0.01,VWS V14.01,2013-04-29 00:01:00,
2013-04-28 19:06:00,66.0,53.5,29.85,SSW,203,2.0,3.0,64,0.00,,SCT055,0.01,VWS V14.01,2013-04-29 00:06:00,
2013-04-28 19:10:00,66.0,53.1,29.85,WSW,250,0.0,3.0,63,0.00,,CLR,0.01,VWS V14.01,2013-04-29 00:10:00,
2013-04-28 19:11:00,65.9,53.4,29.85,WSW,243,1.0,2.0,64,0.00,,SCT055,0.01,VWS V14.01,2013-04-29 00:11:00,
2013-04-28 19:16:00,65.7,53.2,29.85,West,262,0.0,2.0,64,0.00,,SCT055,0.01,VWS V14.01,2013-04-29 00:16:00,
2013-04-28 19:20:00,65.7,53.2,29.85,West,259,1.0,2.0,64,0.00,,CLR,0.01,VWS V14.01,2013-04-29 00:20:00,
2013-04-28 19:21:00,65.6,53.1,29.85,WSW,242,1.0,3.0,64,0.00,,BKN055,0.01,VWS V14.01,2013-04-29 00:21:00,
2013-04-28 19:26:00,65.4,53.3,29.85,WSW,243,0.0,4.0,65,0.00,,BKN055,0.01,VWS V14.01,2013-04-29 00:26:00,
2013-04-28 19:30:00,65.3,53.2,29.85,WSW,243,0.0,4.0,65,0.00,,CLR,0.01,VWS V14.01,2013-04-29 00:30:00,
2013-04-28 19:32:00,65.1,53.5,29.85,WSW,243,1.0,3.0,66,0.00,,BKN055,0.01,VWS V14.01,2013-04-29 00:32:00,
2013-04-28 19:37:00,64.8,53.6,29.85,West,270,2.0,4.0,67,0.00,,BKN055,0.01,VWS V14.01,2013-04-29 00:37:00,
2013-04-28 19:40:00,64.7,53.5,29.85,SSW,198,1.0,4.0,67,0.00,,CLR,0.01,VWS V14.01,2013-04-29 00:40:00,
2013-04-28 19:42:00,64.5,53.7,29.85,SSW,198,0.0,1.0,68,0.00,,SCT055,0.01,VWS V14.01,2013-04-29 00:42:00,
2013-04-28 19:47:00,64.1,53.7,29.85,West,264,0.0,1.0,69,0.00,,SCT055,0.01,VWS V14.01,2013-04-29 00:47:00,
2013-04-28 19:50:00,64.0,53.6,29.85,WSW,249,1.0,1.0,69,0.00,,CLR,0.01,VWS V14.01,2013-04-29 00:50:00,
2013-04-28 19:52:00,63.8,53.8,29.85,SW,225,0.0,2.0,70,0.00,,SCT055,0.01,VWS V14.01,2013-04-29 00:52:00,
2013-04-28 19:57:00,63.5,53.5,29.85,WSW,245,0.0,2.0,70,0.00,,SCT055,0.01,VWS V14.01,2013-04-29 00:57:00,
2013-04-28 20:00:00,63.4,53.8,29.85,WSW,245,0.0,2.0,71,0.00,,CLR,0.01,VWS V14.01,2013-04-29 01:00:00,
2013-04-28 20:02:00,63.2,53.7,29.85,West,264,0.0,3.0,71,0.00,,SCT055,0.01,VWS V14.01,2013-04-29 01:02:00,
2013-04-28 20:07:00,62.9,53.8,29.85,West,260,0.0,3.0,72,0.00,,SCT055,0.01,VWS V14.01,2013-04-29 01:07:00,
2013-04-28 20:10:00,62.9,53.8,29.85,SW,225,1.0,3.0,72,0.00,,CLR,0.01,VWS V14.01,2013-04-29 01:10:00,
2013-04-28 20:12:00,62.7,53.5,29.86,West,269,1.0,2.0,72,0.00,,SCT055,0.01,VWS V14.01,2013-04-29 01:12:00,
2013-04-28 20:17:00,62.5,53.4,29.86,WSW,248,0.0,2.0,72,0.00,,SCT055,0.01,VWS V14.01,2013-04-29 01:17:00,
2013-04-28 20:20:00,62.4,53.6,29.86,West,276,1.0,3.0,73,0.00,,CLR,0.01,VWS V14.01,2013-04-29 01:20:00,
2013-04-28 20:22:00,62.2,53.5,29.86,West,267,0.0,1.0,73,0.00,,SCT055,0.01,VWS V14.01,2013-04-29 01:22:00,
2013-04-28 20:27:00,62.0,53.6,29.86,West,274,1.0,2.0,74,0.00,,SCT055,0.01,VWS V14.01,2013-04-29 01:27:00,
2013-04-28 20:30:00,61.9,53.5,29.86,WSW,242,0.0,2.0,74,0.00,,CLR,0.01,VWS V14.01,2013-04-29 01:30:00,
2013-04-28 20:32:00,61.8,53.4,29.86,WSW,250,1.0,2.0,74,0.00,,SCT055,0.01,VWS V14.01,2013-04-29 01:32:00,
2013-04-28 20:37:00,61.6,53.2,29.86,SW,231,0.0,3.0,74,0.00,,SCT055,0.01,VWS V14.01,2013-04-29 01:37:00,
2013-04-28 20:40:00,61.6,53.2,29.86,SW,231,1.0,3.0,74,0.00,,CLR,0.01,VWS V14.01,2013-04-29 01:40:00,
2013-04-28 20:42:00,61.2,53.2,29.87,SW,227,0.0,1.0,75,0.00,,SCT050,0.01,VWS V14.01,2013-04-29 01:42:00,
2013-04-28 20:47:00,60.8,53.2,29.87,WSW,243,0.0,2.0,76,0.00,,SCT050,0.01,VWS V14.01,2013-04-29 01:47:00,
2013-04-28 20:50:00,60.8,53.2,29.87,WSW,243,1.0,2.0,76,0.00,,CLR,0.01,VWS V14.01,2013-04-29 01:50:00,
2013-04-28 20:53:00,60.7,53.1,29.87,WSW,256,0.0,1.0,76,0.00,,SCT050,0.01,VWS V14.01,2013-04-29 01:53:00,
2013-04-28 20:58:00,60.7,53.1,29.87,WSW,250,0.0,2.0,76,0.00,,SCT050,0.01,VWS V14.01,2013-04-29 01:58:00,
2013-04-28 21:00:00,60.7,53.1,29.87,WSW,256,2.0,2.0,76,0.00,,CLR,0.01,VWS V14.01,2013-04-29 02:00:00,
2013-04-28 21:03:00,60.6,53.0,29.87,WSW,251,0.0,1.0,76,0.00,,CLR,0.01,VWS V14.01,2013-04-29 02:03:00,
2013-04-28 21:08:00,60.4,53.2,29.87,WSW,240,0.0,5.0,77,0.00,,CLR,0.01,VWS V14.01,2013-04-29 02:08:00,
2013-04-28 21:10:00,60.4,53.2,29.87,WSW,240,0.0,5.0,77,0.00,,CLR,0.01,VWS V14.01,2013-04-29 02:10:00,
2013-04-28 21:13:00,60.1,52.9,29.88,SSE,156,2.0,2.0,77,0.00,,CLR,0.01,VWS V14.01,2013-04-29 02:13:00,
2013-04-28 21:18:00,59.6,52.7,29.88,South,170,0.0,2.0,78,0.00,,CLR,0.01,VWS V14.01,2013-04-29 02:18:00,
2013-04-28 21:20:00,59.6,52.7,29.88,South,170,0.0,2.0,78,0.00,,CLR,0.01,VWS V14.01,2013-04-29 02:20:00,
2013-04-28 21:23:00,59.5,53.0,29.88,West,270,0.0,5.0,79,0.00,,CLR,0.01,VWS V14.01,2013-04-29 02:23:00,
2013-04-28 21:28:00,59.6,53.1,29.88,West,262,2.0,5.0,79,0.00,,CLR,0.01,VWS V14.01,2013-04-29 02:28:00,
2013-04-28 21:30:00,59.6,53.1,29.88,West,271,3.0,5.0,79,0.00,,CLR,0.01,VWS V14.01,2013-04-29 02:30:00,
2013-04-28 21:33:00,59.6,53.1,29.88,West,278,1.0,8.0,79,0.00,,CLR,0.01,VWS V14.01,2013-04-29 02:33:00,
2013-04-28 21:38:00,59.5,53.0,29.88,West,269,3.0,8.0,79,0.00,,CLR,0.01,VWS V14.01,2013-04-29 02:38:00,
2013-04-28 21:40:00,59.5,53.0,29.88,West,269,3.0,8.0,79,0.00,,CLR,0.01,VWS V14.01,2013-04-29 02:40:00,
2013-04-28 21:43:00,59.4,52.9,29.89,WSW,246,2.0,3.0,79,0.00,,CLR,0.01,VWS V14.01,2013-04-29 02:43:00,
2013-04-28 21:48:00,59.3,53.1,29.89,WSW,251,1.0,5.0,80,0.00,,CLR,0.01,VWS V14.01,2013-04-29 02:48:00,
2013-04-28 21:50:00,59.3,53.1,29.89,WSW,251,1.0,5.0,80,0.00,,CLR,0.01,VWS V14.01,2013-04-29 02:50:00,
2013-04-28 21:53:00,59.2,53.4,29.89,West,269,1.0,4.0,81,0.00,,CLR,0.01,VWS V14.01,2013-04-29 02:53:00,
2013-04-28 21:59:00,59.1,53.3,29.89,WSW,249,3.0,4.0,81,0.00,,CLR,0.01,VWS V14.01,2013-04-29 02:59:00,
2013-04-28 22:00:00,59.1,53.3,29.89,WSW,257,3.0,4.0,81,0.00,,CLR,0.01,VWS V14.01,2013-04-29 03:00:00,
2013-04-28 22:04:00,59.0,53.2,29.89,WSW,258,3.0,5.0,81,0.00,,CLR,0.01,VWS V14.01,2013-04-29 03:04:00,
2013-04-28 22:09:00,58.8,53.3,29.89,West,266,1.0,1.0,82,0.00,,CLR,0.01,VWS V14.01,2013-04-29 03:09:00,
2013-04-28 22:10:00,58.8,53.3,29.89,WSW,257,0.0,5.0,82,0.00,,CLR,0.01,VWS V14.01,2013-04-29 03:10:00,
2013-04-28 22:14:00,58.6,53.1,29.88,WSW,250,2.0,3.0,82,0.00,,CLR,0.01,VWS V14.01,2013-04-29 03:14:00,
2013-04-28 22:19:00,58.2,53.1,29.89,WNW,284,3.0,4.0,83,0.00,,CLR,0.01,VWS V14.01,2013-04-29 03:19:00,
2013-04-28 22:20:00,58.3,53.2,29.89,WSW,246,3.0,4.0,83,0.00,,CLR,0.01,VWS V14.01,2013-04-29 03:20:00,
2013-04-28 22:24:00,58.1,53.3,29.89,West,278,3.0,6.0,84,0.00,,CLR,0.01,VWS V14.01,2013-04-29 03:24:00,
2013-04-28 22:29:00,58.0,53.2,29.89,SW,217,2.0,2.0,84,0.00,,CLR,0.01,VWS V14.01,2013-04-29 03:29:00,
2013-04-28 22:30:00,58.0,53.2,29.89,West,278,0.0,7.0,84,0.00,,CLR,0.01,VWS V14.01,2013-04-29 03:30:00,
2013-04-28 22:34:00,57.8,53.0,29.89,WSW,257,4.0,9.0,84,0.00,,CLR,0.01,VWS V14.01,2013-04-29 03:34:00,
2013-04-28 22:39:00,57.6,52.8,29.89,West,267,2.0,5.0,84,0.00,,CLR,0.01,VWS V14.01,2013-04-29 03:39:00,
2013-04-28 22:40:00,57.6,52.8,29.89,SW,229,2.0,9.0,84,0.00,,CLR,0.01,VWS V14.01,2013-04-29 03:40:00,
2013-04-28 22:44:00,57.5,53.0,29.90,SW,233,1.0,10.0,85,0.00,,CLR,0.01,VWS V14.01,2013-04-29 03:44:00,
2013-04-28 22:49:00,57.3,52.8,29.89,WNW,291,3.0,4.0,85,0.00,,CLR,0.01,VWS V14.01,2013-04-29 03:49:00,
2013-04-28 22:50:00,57.3,52.8,29.89,SW,232,3.0,10.0,85,0.00,,CLR,0.01,VWS V14.01,2013-04-29 03:50:00,
2013-04-28 22:54:00,57.1,52.6,29.90,WSW,246,0.0,5.0,85,0.00,,CLR,0.01,VWS V14.01,2013-04-29 03:54:00,
2013-04-28 22:59:00,56.8,52.7,29.90,West,266,5.0,7.0,86,0.00,,CLR,0.01,VWS V14.01,2013-04-29 03:59:00,
2013-04-28 23:00:00,56.9,52.8,29.90,WSW,255,5.0,9.0,86,0.00,,CLR,0.01,VWS V14.01,2013-04-29 04:00:00,
2013-04-28 23:01:00,56.8,52.7,29.90,SSW,200,2.0,7.0,86,0.00,,CLR,0.01,VWS V14.01,2013-04-29 04:01:00,
2013-04-28 23:02:00,56.8,52.7,29.90,WSW,249,4.0,8.0,86,0.00,,CLR,0.01,VWS V14.01,2013-04-29 04:02:00,
2013-04-28 23:03:00,56.7,52.6,29.90,West,265,4.0,11.0,86,0.00,,CLR,0.01,VWS V14.01,2013-04-29 04:03:00,
2013-04-28 23:08:00,56.5,52.4,29.90,SSW,207,3.0,11.0,86,0.00,,CLR,0.01,VWS V14.01,2013-04-29 04:08:00,
2013-04-28 23:10:00,56.5,52.4,29.90,WNW,289,3.0,11.0,86,0.00,,CLR,0.01,VWS V14.01,2013-04-29 04:10:00,
2013-04-28 23:13:00,56.3,52.2,29.90,SW,232,0.0,4.0,86,0.00,,CLR,0.01,VWS V14.01,2013-04-29 04:13:00,
2013-04-28 23:18:00,56.2,52.4,29.90,West,270,3.0,7.0,87,0.00,,CLR,0.01,VWS V14.01,2013-04-29 04:18:00,
2013-04-28 23:20:00,56.2,52.4,29.90,West,270,3.0,7.0,87,0.00,,CLR,0.01,VWS V14.01,2013-04-29 04:20:00,
2013-04-28 23:23:00,56.0,52.2,29.90,West,259,3.0,4.0,87,0.00,,CLR,0.01,VWS V14.01,2013-04-29 04:23:00,
2013-04-28 23:28:00,55.8,52.0,29.90,West,269,3.0,6.0,87,0.00,,CLR,0.01,VWS V14.01,2013-04-29 04:28:00,
2013-04-28 23:30:00,55.8,52.0,29.90,West,269,3.0,6.0,87,0.00,,CLR,0.01,VWS V14.01,2013-04-29 04:30:00,
2013-04-28 23:33:00,55.7,51.9,29.90,West,269,3.0,8.0,87,0.00,,CLR,0.01,VWS V14.01,2013-04-29 04:33:00,
2013-04-28 23:38:00,55.5,51.7,29.90,WSW,252,1.0,3.0,87,0.00,,CLR,0.01,VWS V14.01,2013-04-29 04:38:00,
2013-04-28 23:40:00,55.6,51.8,29.90,West,280,3.0,8.0,87,0.00,,CLR,0.01,VWS V14.01,2013-04-29 04:40:00,
2013-04-28 23:44:00,55.4,51.6,29.90,West,277,2.0,7.0,87,0.00,,CLR,0.01,VWS V14.01,2013-04-29 04:44:00,
2013-04-28 23:49:00,55.3,51.8,29.90,SW,222,1.0,3.0,88,0.00,,CLR,0.01,VWS V14.01,2013-04-29 04:49:00,
2013-04-28 23:50:00,55.3,51.8,29.90,WSW,257,3.0,7.0,88,0.00,,CLR,0.01,VWS V14.01,2013-04-29 04:50:00,
2013-04-28 23:54:00,55.1,51.6,29.90,WSW,250,2.0,3.0,88,0.00,,CLR,0.01,VWS V14.01,2013-04-29 04:54:00,
2013-04-28 23:59:00,54.9,51.4,29.90,WSW,245,0.0,1.0,88,0.00,,CLR,0.00,VWS V14.01,2013-04-29 04:59:00,